STARLINK-1585, 46117

Orbit data source: Space-Track

STARLINK-1585, 46117 is a payload satellite owned by SpaceX/Seattle (US) in LEO that was launched on Tue, 18 Aug 2020 UTC via an FALCON 9 launch vehicle from the Air Force Eastern Test Range (AFETR). Payload-class satellites include a variety of spacecraft equipped with specific instruments for various scientific and technological missions. These include communications satellites like Starlink; space stations such as the ISS; scientific satellites like the Hubble; Earth observation satellites from companies like Planet Labs, Umbra, and HawkEye 360; GPS; miniature CubeSats for education and research; and military/defense satellites.

Loading next visibility...
Identifier
46117, 2020-057A
Orbit
LEO
Country
Flag of USUS
Related business
Manufacturer
SpaceX/Seattle
Mission
Partially operational Commercial Communications
Bus & Motor
STARLINK, Unknown motor
Mass
260 kg wet, ~248 kg dry
Launch date (UTC)
2020-08-18 (5 years ago)
Launch vehicle
FALCON 9
Launch site
Air Force Eastern Test Range (AFETR)
Object type
Payload
Rocket body
Debris
Shape & HBR
Box + 1 Pan, 10.1 m
Radar Cross Section
13.562 m², Large (>1 m²)

Expand to show TLE details & history
Last TLE update: 5 hours ago

TLE from 5 hours ago
0 STARLINK-1585
1 46117U 20057A   26035.58335647  .00246708  00000-0  22262-2 0  9993
2 46117  53.0456  52.0866 0006931 335.9469 354.9625 15.66832975  5987
Epoch: 2026-02-04T14:00Z
TLE epoch observation values (Epoch: 2026-02-04T14:00:01.999Z)
Latitude
-23.06244°
Longitude
48.75772°
Altitude
369.895 km
Speed
7.69 km/s
True Right ascension
02h 14m 03s
True Declination
-22° 55' 54"
Sunlit
Object was in daylight at epoch
Visualization orbit readout
Latitude
Unknown
Longitude
Unknown
Altitude
Unknown
Speed
Unknown
Apparent Right ascension
Unknown
Apparent Declination
Unknown
Sunlit
N/A
Visualization observer readout
Local Sidereal Time
21:08:58
Azimuth
Unknown
Elevation
Unknown
Doppler factor
Unknown
Orbital elements
Apogee altitude
372.927 km
Perigee altitude
363.576 km
Semi-major axis
6,746.388 km
Eccentricity
0.00069
Inclination
53.0456°
RAAN
52.0866°
Arg. of periapsis
335.9469°
True anomaly
354.95552°
Mean anomaly
354.9625°
Eccentric anomaly
354.95901°
Mean motion
3.91684 °/min
Orbital period
91.91 mins
BSTAR
0.0022262
Loading maneuver chart data...
Computing Atmospheric mass density...

Documentation

Showing up to 5 results
|